When you browse on this site, cookies collect data to enhance your experience and personalize the content and advertising you see.
Visit our Privacy Policy to learn more. By continuing to use the site, you agree to this use of cookies and data.

Previsão horária em Abay (Aralskiy rayon)

Hoje, 28 Setembro, Segunda-feira

Tempo Temperatura Precipitação Vento Pressão Humidade
00:00 +10°C° 0 mm 5 m/s 765 mmHg 42%
01:00 +10°C° 0 mm 4 m/s 765 mmHg 44%
02:00 +10°C° 0 mm 4 m/s 766 mmHg 46%
03:00 +8°C° 0 mm 4 m/s 766 mmHg 48%
04:00 +8°C° 0 mm 4 m/s 766 mmHg 50%
05:00 +8°C° 0 mm 4 m/s 766 mmHg 49%
06:00 +8°C° 0 mm 4 m/s 766 mmHg 49%
07:00 +8°C° 0 mm 4 m/s 766 mmHg 48%
08:00 +10°C° 0 mm 5 m/s 767 mmHg 42%
09:00 +13°C° 0 mm 5 m/s 767 mmHg 36%
10:00 +15°C° 0 mm 6 m/s 767 mmHg 31%
11:00 +16°C° 0 mm 6 m/s 767 mmHg 28%
12:00 +17°C° 0 mm 6 m/s 766 mmHg 26%
13:00 +19°C° 0 mm 6 m/s 766 mmHg 23%
14:00 +19°C° 0 mm 6 m/s 766 mmHg 23%
15:00 +19°C° 0 mm 5 m/s 766 mmHg 22%
16:00 +19°C° 0 mm 5 m/s 766 mmHg 22%
17:00 +17°C° 0 mm 5 m/s 766 mmHg 24%
18:00 +15°C° 0 mm 4 m/s 766 mmHg 26%
19:00 +14°C° 0 mm 4 m/s 766 mmHg 29%
20:00 +13°C° 0 mm 4 m/s 766 mmHg 30%
21:00 +13°C° 0 mm 4 m/s 766 mmHg 32%
22:00 +12°C° 0 mm 4 m/s 766 mmHg 33%
23:00 +12°C° 0 mm 4 m/s 766 mmHg 35%

Amanhã, 29 Setembro, Terça-feira

Tempo Temperatura Precipitação Vento Pressão Humidade
00:00 +11°C° 0 mm 4 m/s 766 mmHg 37%
01:00 +11°C° 0 mm 4 m/s 766 mmHg 38%
02:00 +11°C° 0 mm 3 m/s 766 mmHg 40%
03:00 +10°C° 0 mm 3 m/s 766 mmHg 41%
04:00 +9°C° 0 mm 3 m/s 766 mmHg 42%
05:00 +10°C° 0 mm 3 m/s 766 mmHg 41%
06:00 +10°C° 0 mm 3 m/s 767 mmHg 40%
07:00 +11°C° 0 mm 3 m/s 767 mmHg 39%
08:00 +13°C° 0 mm 3 m/s 767 mmHg 35%
09:00 +15°C° 0 mm 4 m/s 767 mmHg 31%
10:00 +18°C° 0 mm 4 m/s 767 mmHg 27%
11:00 +17°C° 0 mm 5 m/s 766 mmHg 26%
12:00 +19°C° 0 mm 5 m/s 766 mmHg 24%
13:00 +20°C° 0 mm 6 m/s 766 mmHg 23%
14:00 +20°C° 0 mm 6 m/s 765 mmHg 22%
15:00 +20°C° 0 mm 6 m/s 765 mmHg 21%
16:00 +20°C° 0 mm 6 m/s 765 mmHg 21%
17:00 +19°C° 0 mm 5 m/s 765 mmHg 24%
18:00 +17°C° 0 mm 4 m/s 765 mmHg 27%
19:00 +15°C° 0 mm 4 m/s 765 mmHg 29%
20:00 +14°C° 0 mm 4 m/s 765 mmHg 33%
21:00 +14°C° 0 mm 4 m/s 765 mmHg 37%
22:00 +13°C° 0 mm 4 m/s 764 mmHg 40%
23:00 +13°C° 0 mm 4 m/s 764 mmHg 42%

Depois de amanhã, 30 Setembro, Quarta-feira

Tempo Temperatura Precipitação Vento Pressão Humidade
00:00 +13°C° 0 mm 4 m/s 764 mmHg 45%
01:00 +12°C° 0 mm 4 m/s 764 mmHg 47%
02:00 +12°C° 0 mm 4 m/s 764 mmHg 49%
03:00 +12°C° 0 mm 4 m/s 764 mmHg 51%
04:00 +11°C° 0 mm 4 m/s 764 mmHg 52%
05:00 +12°C° 0 mm 5 m/s 764 mmHg 52%
06:00 +12°C° 0 mm 5 m/s 764 mmHg 52%
07:00 +12°C° 0 mm 5 m/s 764 mmHg 52%
08:00 +15°C° 0 mm 5 m/s 764 mmHg 47%
09:00 +17°C° 0 mm 6 m/s 764 mmHg 41%
10:00 +20°C° 0 mm 6 m/s 763 mmHg 36%
11:00 +21°C° 0 mm 6 m/s 763 mmHg 34%
12:00 +21°C° 0 mm 6 m/s 762 mmHg 31%
13:00 +22°C° 0 mm 6 m/s 762 mmHg 28%
14:00 +22°C° 0 mm 6 m/s 762 mmHg 29%
15:00 +22°C° 0 mm 6 m/s 761 mmHg 29%
16:00 +22°C° 0 mm 6 m/s 761 mmHg 29%
17:00 +20°C° 0 mm 6 m/s 761 mmHg 32%
18:00 +19°C° 0 mm 5 m/s 761 mmHg 35%
19:00 +16°C° 0 mm 5 m/s 761 mmHg 39%
20:00 +16°C° 0 mm 5 m/s 761 mmHg 42%
21:00 +15°C° 0 mm 6 m/s 761 mmHg 46%
22:00 +15°C° 0 mm 6 m/s 760 mmHg 50%
23:00 +15°C° 0 mm 6 m/s 760 mmHg 51%

1 Outubro, Quinta-feira

Tempo Temperatura Precipitação Vento Pressão Humidade
00:00 +14°C° 0 mm 6 m/s 760 mmHg 53%
01:00 +14°C° 0 mm 6 m/s 760 mmHg 54%
02:00 +14°C° 0 mm 6 m/s 760 mmHg 55%
03:00 +14°C° 0 mm 6 m/s 760 mmHg 55%
04:00 +14°C° 0 mm 6 m/s 760 mmHg 56%
05:00 +15°C° 0 mm 6 m/s 760 mmHg 54%
06:00 +15°C° 0 mm 6 m/s 760 mmHg 53%
07:00 +15°C° 0 mm 6 m/s 760 mmHg 51%
08:00 +16°C° 0 mm 6 m/s 760 mmHg 46%
09:00 +17°C° 0 mm 6 m/s 760 mmHg 41%
10:00 +20°C° 0 mm 6 m/s 760 mmHg 35%
11:00 +20°C° 0 mm 6 m/s 760 mmHg 33%
12:00 +21°C° 0 mm 6 m/s 760 mmHg 30%
13:00 +22°C° 0 mm 6 m/s 760 mmHg 28%
14:00 +22°C° 0 mm 6 m/s 760 mmHg 27%
15:00 +22°C° 0 mm 6 m/s 760 mmHg 26%
16:00 +21°C° 0 mm 5 m/s 759 mmHg 26%
17:00 +20°C° 0 mm 6 m/s 760 mmHg 28%
18:00 +19°C° 0 mm 6 m/s 760 mmHg 31%
19:00 +16°C° 0 mm 6 m/s 760 mmHg 34%
20:00 +15°C° 0 mm 6 m/s 760 mmHg 35%
21:00 +15°C° 0 mm 6 m/s 760 mmHg 37%
22:00 +14°C° 0 mm 6 m/s 760 mmHg 39%
23:00 +13°C° 0 mm 5 m/s 760 mmHg 40%

2 Outubro, Sexta-feira

Tempo Temperatura Precipitação Vento Pressão Humidade
00:00 +12°C° 0 mm 5 m/s 760 mmHg 41%
01:00 +12°C° 0 mm 4 m/s 760 mmHg 43%
02:00 +11°C° 0 mm 4 m/s 760 mmHg 42%
03:00 +11°C° 0 mm 4 m/s 760 mmHg 41%
04:00 +10°C° 0 mm 4 m/s 760 mmHg 41%
05:00 +9°C° 0 mm 5 m/s 760 mmHg 39%
06:00 +9°C° 0 mm 5 m/s 760 mmHg 38%
07:00 +9°C° 0 mm 5 m/s 760 mmHg 37%
08:00 +12°C° 0 mm 5 m/s 760 mmHg 32%
09:00 +15°C° 0 mm 5 m/s 760 mmHg 27%
10:00 +18°C° 0 mm 4 m/s 760 mmHg 21%
11:00 +19°C° 0 mm 5 m/s 760 mmHg 18%
12:00 +20°C° 0 mm 5 m/s 760 mmHg 15%
13:00 +22°C° 0 mm 5 m/s 759 mmHg 12%
14:00 +21°C° 0 mm 5 m/s 759 mmHg 11%
15:00 +21°C° 0 mm 4 m/s 759 mmHg 11%
16:00 +21°C° 0 mm 4 m/s 759 mmHg 10%
17:00 +19°C° 0 mm 4 m/s 759 mmHg 12%
18:00 +17°C° 0 mm 3 m/s 759 mmHg 14%
19:00 +15°C° 0 mm 2 m/s 759 mmHg 16%
20:00 +13°C° 0 mm 3 m/s 759 mmHg 17%
21:00 +13°C° 0 mm 4 m/s 759 mmHg 17%
22:00 +13°C° 0 mm 4 m/s 759 mmHg 18%
23:00 +12°C° 0 mm 4 m/s 759 mmHg 19%

3 Outubro, Sábado

Tempo Temperatura Precipitação Vento Pressão Humidade
00:00 +12°C° 0 mm 4 m/s 759 mmHg 21%
01:00 +11°C° 0 mm 4 m/s 759 mmHg 22%
02:00 +11°C° 0 mm 3 m/s 759 mmHg 22%
03:00 +11°C° 0 mm 3 m/s 759 mmHg 23%
04:00 +10°C° 0 mm 3 m/s 760 mmHg 23%
05:00 +10°C° 0 mm 3 m/s 760 mmHg 22%
06:00 +11°C° 0 mm 3 m/s 760 mmHg 22%
07:00 +11°C° 0 mm 3 m/s 760 mmHg 22%
08:00 +13°C° 0 mm 3 m/s 760 mmHg 21%
09:00 +15°C° 0 mm 4 m/s 760 mmHg 20%
10:00 +18°C° 0 mm 4 m/s 760 mmHg 19%
11:00 +19°C° 0 mm 4 m/s 760 mmHg 19%
12:00 +20°C° 0 mm 4 m/s 760 mmHg 19%
13:00 +21°C° 0 mm 4 m/s 760 mmHg 19%
14:00 +21°C° 0 mm 4 m/s 760 mmHg 20%
15:00 +21°C° 0 mm 4 m/s 760 mmHg 20%
16:00 +21°C° 0 mm 4 m/s 760 mmHg 21%
17:00 +19°C° 0 mm 4 m/s 760 mmHg 25%
18:00 +17°C° 0 mm 4 m/s 760 mmHg 29%
19:00 +15°C° 0 mm 4 m/s 760 mmHg 33%
20:00 +14°C° 0 mm 4 m/s 761 mmHg 35%
21:00 +14°C° 0 mm 4 m/s 761 mmHg 38%
22:00 +13°C° 0 mm 5 m/s 761 mmHg 40%
23:00 +12°C° 0 mm 4 m/s 761 mmHg 42%
Mostrar mais